Location: Mauries
(43.6188°N, 0.3322°W)
Time: 13:03:17
(UTC+00:00)

Envisat - Pass Details

Date: 20 March 2026
Orbit: 761 x 762 km, 98.4° (Epoch: 14 April)

Event Time Altitude Azimuth Distance (km) Brightness Sun altitude
Rises 02:53:29 0° 11° (NNE) 3,234 6.9 -33.2°
Reaches altitude 10° 02:55:48 10° 10° (N) 2,303 6.0 -32.9°
Enters shadow 02:58:34 33° 6° (N) 1,263 4.3 -32.5°
